EHI
0 0 0 0 0 0 0 0 0 0 0 0 0 0 0 0 0 0 0 0 0 0 0 0 0 0 0 0 0 0 0 0 1 2 2 1 0 0 0 0 0 0 0 0
0 0 0 0 0 0 0 0 0 0 0 0 0 0 0 0 0 0 0 0 0 0 0 0 0 0 0 0 0 0 0 0 1 2 3 1 0 0 0 0 0 0 0 0
0 0 0 0 0 0 0 0 0 0 0 0 0 0 0 0 0 0 0 0 0 0 0 0 0 0 1 1 0 0 0 0 1 2 3 2 1 0 0 0 0 0 0 0
0 0 0 0 0 0 0 0 0 0 0 0 0 0 0 0 0 0 0 0 0 0 0 0 0 1 2 2 1 0 0 0 1 2 3 3 1 0 0 0 0 0 0 0
0 0 0 0 0 0 0 0 0 0 0 0 0 0 0 0 0 0 0 0 0 0 0 0 1 2 3 2 1 0 0 0 1 2 3 3 2 1 0 0 0 0 0 0
0 0 0 0 0 0 0 0 0 0 0 0 0 0 0 0 0 0 0 0 0 0 0 1 2 3 3 2 1 0 0 0 1 2 3 3 3 1 0 0 0 0 0 0
0 0 0 0 0 0 0 0 0 0 0 0 0 0 0 0 0 0 0 0 1 1 1 1 3 3 3 2 1 0 1 1 2 3 3 3 3 2 1 0 0 0 0 0
0 0 0 0 0 0 0 0 0 0 0 0 0 0 0 0 0 0 0 0 1 2 3 3 3 3 3 2 1 1 2 3 3 4 4 4 5 4 2 1 0 0 0 0
0 0 0 0 0 0 0 0 0 0 0 0 0 0 0 0 0 0 0 0 1 2 3 3 3 2 1 1 2 3 3 3 3 4 5 6 6 5 4 2 0 0 0 0
0 0 0 0 0 0 0 0 0 0 0 0 0 0 0 0 0 0 0 0 0 1 1 2 2 1 0 1 2 3 3 3 3 3 4 6 6 6 5 2 0 0 0 0
0 0 0 0 0 0 0 0 0 0 0 0 0 0 0 0 0 0 0 0 0 0 0 1 1 0 0 0 1 2 3 3 3 3 4 5 6 6 4 2 0 0 0 0
0 0 0 0 0 0 0 0 0 0 0 0 0 1 0 0 0 0 0 0 0 0 0 0 0 0 0 0 1 2 3 3 3 3 3 4 5 4 2 1 0 0 0 0
0 0 0 0 0 0 0 0 0 0 0 0 0 0 0 0 0 0 0 0 0 0 0 0 0 0 0 1 2 2 2 3 3 3 3 3 3 2 0 0 0 0 0 0
0 0 0 0 0 0 0 0 0 0 0 0 0 0 0 0 0 0 0 0 0 0 0 0 0 0 1 2 2 1 1 1 2 3 2 2 1 1 0 0 0 0 0 0
0 0 0 0 0 0 0 0 0 0 0 0 0 0 0 0 0 0 0 0 0 0 0 0 0 0 1 2 2 1 0 0 1 2 3 2 2 2 1 0 0 1 0 0
0 0 0 0 0 0 0 0 0 0 0 0 0 0 0 0 0 0 0 0 0 0 0 0 0 0 0 1 1 0 0 0 1 2 3 3 3 3 1 0 0 0 0 0
0 0 0 0 0 0 0 0 0 0 0 0 0 0 0 0 0 0 0 0 0 0 0 0 0 0 0 0 0 0 0 0 0 1 3 3 3 3 2 1 0 0 0 0
0 0 0 0 0 0 0 0 0 0 0 0 0 0 0 0 0 0 0 0 0 0 0 0 0 0 0 0 0 0 0 0 0 1 2 3 3 3 2 1 0 0 0 0
0 0 0 0 0 0 0 0 0 0 0 0 0 0 0 0 0 0 0 0 0 0 0 0 0 0 0 0 0 0 0 0 0 1 2 1 1 2 1 1 0 0 0 0
0 0 0 0 0 0 0 0 0 0 0 0 0 0 0 0 0 0 0 0 0 0 0 0 0 0 0 0 0 0 0 0 0 1 1 0 0 0 0 0 0 0 0 0
0 0 0 0 0 0 0 0 0 0 0 0 0 0 0 0 0 0 0 0 0 0 0 0 0 0 0 0 0 0 0 0 0 0 0 0 0 0 0 0 0 0 0 0
0 0 0 0 0 0 0 0 0 0 0 0 0 0 0 0 0 0 0 0 0 0 0 0 0 0 0 0 0 0 0 0 0 0 0 0 0 0 0 0 0 0 0 0
0 0 0 0 0 0 0 0 0 0 0 0 0 0 0 0 0 0 0 0 0 0 0 0 0 0 0 0 0 0 0 0 0 0 0 0 0 0 0 0 0 0 0 0
0 0 0 0 0 0 0 0 0 0 0 0 0 0 0 0 0 0 0 0 0 0 0 0 0 0 0 0 0 0 0 0 0 0 0 0 0 0 0 0 0 0 0 0
0 0 0 0 0 0 0 0 0 0 0 0 0 0 0 0 0 0 0 0 0 0 0 0 0 0 0 0 0 0 0 0 0 0 0 0 0 0 0 0 0 0 0 0
0 0 0 0 0 0 0 0 0 0 0 0 0 0 0 0 0 0 0 0 0 0 0 0 0 0 0 0 0 0 0 0 0 0 0 0 0 0 0 0 0 0 0 0
0 0 0 0 0 0 0 0 0 0 0 0 0 0 0 0 0 0 0 0 0 0 0 0 0 0 0 0 0 0 0 0 0 0 0 0 0 0 0 0 0 0 0 0
Wind_Speed
6 5 5 7 8 10 12 11 10 8 8 5 3 3 3 2 2 1 2 2 2 2 2 2 3 4 4 5 5 6 7 8 7 7 7 6 6 6 5 5 5 4 4 4
7 6 7 9 10 10 11 11 12 11 9 5 3 3 3 3 3 3 2 2 2 2 3 3 3 3 4 5 5 6 7 7 6 6 6 6 6 6 6 5 5 5 5 5
7 5 8 11 10 11 9 9 10 11 7 3 4 4 4 3 4 4 3 3 3 3 3 3 3 4 4 5 5 6 6 6 6 7 6 6 6 6 6 6 6 6 6 5
6 7 11 3 1 6 8 8 8 7 5 4 5 4 4 4 4 4 4 4 4 3 3 3 3 3 4 5 6 7 7 6 7 7 7 6 6 6 6 6 5 5 5 5
6 8 9 5 3 5 7 7 6 7 6 5 4 5 5 3 3 4 4 4 3 3 4 3 3 3 4 4 5 6 7 7 7 7 7 7 7 7 6 6 5 5 5 5
7 8 8 2 2 2 6 7 3 4 4 4 4 6 2 0 2 3 3 3 3 3 4 3 2 3 4 5 5 6 6 6 6 7 8 8 8 7 6 5 5 5 5 6
11 10 7 0 1 4 7 1 1 3 3 4 6 5 3 2 3 3 3 3 3 3 3 2 2 3 4 4 4 5 5 5 5 7 7 7 7 6 6 6 6 6 6 6
9 10 6 3 4 5 1 3 2 3 3 4 6 5 3 4 4 3 3 3 3 2 2 2 3 4 4 3 3 3 4 5 5 6 6 6 6 6 6 6 6 6 6 5
6 4 2 2 3 2 3 4 4 4 4 5 5 5 5 4 4 4 4 4 3 3 3 3 3 4 4 3 2 3 4 5 5 5 5 6 6 6 6 6 5 5 5 5
6 6 5 4 5 5 5 5 5 5 5 6 6 6 6 5 5 4 4 4 3 4 4 3 3 4 3 2 3 4 4 5 5 5 5 5 5 5 5 6 6 6 5 5
9 7 6 7 6 6 5 5 6 6 6 6 6 6 6 6 6 5 4 4 4 4 4 4 3 4 3 3 4 4 4 4 4 4 4 5 5 4 5 6 5 6 5 5
7 6 7 6 5 6 7 7 7 6 6 6 6 7 7 6 6 5 4 4 4 4 4 4 3 3 3 3 4 4 4 4 4 3 3 4 4 3 2 3 3 5 5 5
9 7 8 8 8 7 8 8 7 7 7 7 7 7 7 6 6 5 5 5 5 4 4 4 3 4 3 4 4 5 4 4 3 3 4 4 4 4 3 2 1 3 4 5
10 9 10 9 8 7 7 7 7 8 8 7 7 6 6 6 6 6 6 5 5 4 4 4 4 4 4 4 5 5 5 4 4 4 4 4 4 4 4 4 3 3 3 5
9 9 9 8 8 8 7 7 7 7 7 7 6 6 6 6 6 6 5 4 4 4 4 4 4 4 3 4 5 5 4 4 4 4 4 3 3 3 3 4 4 3 3 4
7 7 8 8 9 8 8 8 8 8 7 7 7 7 7 6 6 5 5 5 5 5 4 4 4 4 4 4 5 4 4 3 4 4 4 4 4 4 4 4 4 4 4 3
8 8 8 9 9 9 8 8 8 8 7 7 7 7 6 6 5 5 5 5 5 5 5 5 5 4 4 5 5 4 4 4 5 4 4 4 4 4 4 4 4 4 4 4
9 10 10 9 9 8 8 8 7 8 7 7 7 6 6 6 6 5 5 5 5 5 5 5 4 4 5 5 4 4 4 4 5 5 4 4 4 4 4 4 5 5 3 3
8 8 8 8 8 8 8 8 7 7 7 6 6 6 5 5 5 5 5 5 5 5 5 4 4 5 5 4 4 4 4 4 5 5 4 4 5 4 4 4 4 4 4 4
6 7 7 7 7 6 6 6 6 6 6 5 5 5 5 4 4 4 4 5 5 4 4 3 4 5 5 5 4 4 4 5 5 4 4 4 5 5 5 5 5 5 4 4
6 6 6 6 6 6 6 6 5 5 5 5 5 4 4 4 4 4 4 4 4 3 3 4 4 4 4 4 5 4 4 4 4 5 5 5 5 5 5 5 4 4 4 4
6 6 6 5 5 5 5 5 5 5 5 4 4 4 4 3 3 3 4 3 3 2 3 3 3 3 3 4 4 4 4 4 4 4 5 5 5 5 5 5 5 4 4 4
6 5 5 5 5 6 5 4 4 4 4 4 4 4 4 3 3 3 3 2 2 3 3 2 2 2 4 4 4 4 5 5 5 5 5 5 5 5 5 5 5 4 4 4
5 5 5 5 5 5 5 4 4 4 3 3 4 4 4 3 2 2 2 2 3 3 3 2 2 3 5 4 4 4 4 5 5 5 5 4 4 4 4 4 4 4 4 5
5 5 5 4 4 4 4 4 3 3 3 2 3 3 3 3 3 2 2 3 3 3 2 2 3 4 4 3 4 4 4 4 4 4 4 4 4 4 4 4 4 4 4 4
5 4 4 4 4 3 3 3 2 2 2 2 2 2 2 2 2 3 2 3 3 3 2 2 2 3 3 3 3 4 3 3 4 4 4 4 4 4 4 4 5 4 4 4
5 4 3 3 3 3 3 3 3 3 3 3 2 2 2 2 2 2 2 2 2 2 2 2 2 3 3 3 3 3 3 3 4 4 4 4 4 4 4 5 4 4 4 4
Wind_Direction
262 268 251 247 239 230 238 247 255 257 260 273 279 275 269 256 236 216 207 207 212 222 221 218 216 213 212 212 202 197 196 198 198 195 190 191 191 190 191 193 201 194 199 197
244 239 248 251 246 241 243 248 250 255 256 266 276 264 253 247 234 234 230 229 237 242 237 226 219 216 215 211 203 198 200 198 191 191 188 189 194 195 189 193 201 194 201 202
252 234 251 245 236 232 232 237 245 251 257 257 251 248 249 253 243 242 245 250 249 252 251 244 231 217 214 213 204 201 200 194 190 192 189 192 194 194 192 197 201 202 206 206
258 242 242 239 176 226 234 240 242 255 260 256 264 264 257 257 252 254 258 260 261 262 257 257 245 226 214 209 205 203 199 193 191 194 191 195 199 197 200 201 198 208 211 208
242 246 255 228 211 218 227 242 237 240 249 257 272 248 230 221 253 272 269 268 269 268 260 249 236 225 210 206 206 205 203 199 193 193 193 195 199 199 202 201 199 204 205 206
234 245 248 206 130 224 237 233 209 233 245 255 256 249 240 331 263 268 273 268 269 267 254 236 222 211 206 204 206 208 207 206 197 195 196 199 201 200 200 201 204 204 205 211
235 244 253 73 159 201 226 244 120 236 250 249 250 282 310 285 268 263 264 267 262 256 248 235 220 212 215 212 217 216 209 205 199 197 198 201 200 198 197 198 202 207 208 213
226 235 236 133 178 214 297 14 317 277 274 269 273 286 280 269 268 260 257 259 250 245 248 235 221 218 219 223 226 217 201 201 201 201 197 194 193 196 199 197 202 207 210 210
235 248 25 165 209 278 315 299 296 286 287 282 280 282 280 272 267 261 256 252 246 241 241 237 227 226 227 220 219 209 197 199 201 200 198 195 192 194 197 198 206 208 208 210
239 237 242 250 257 272 281 287 299 291 282 276 276 280 280 276 269 262 251 246 242 238 234 230 223 227 232 216 215 210 201 199 197 197 196 196 198 200 201 202 208 211 211 212
244 249 257 250 249 263 275 281 286 286 280 278 277 274 274 275 270 262 249 244 242 242 241 238 228 222 220 220 216 210 201 196 198 199 195 198 199 208 213 214 217 219 217 212
253 256 257 262 266 271 276 281 284 283 283 282 278 275 275 273 270 262 252 245 240 241 240 232 225 220 214 221 222 214 204 198 197 197 195 198 198 198 213 247 220 228 240 235
267 281 277 278 275 267 270 276 277 277 278 281 281 277 275 273 269 262 254 247 239 236 236 230 225 225 213 214 223 217 212 205 200 203 199 200 203 206 200 195 189 219 223 225
259 264 265 265 268 268 269 271 275 277 279 279 281 279 274 270 267 260 254 250 241 233 229 224 226 230 221 212 218 218 216 212 210 205 208 207 209 211 211 208 202 204 204 202
257 253 259 270 273 270 269 269 271 274 280 283 281 276 270 265 264 261 256 246 233 228 227 222 223 228 222 213 213 212 215 214 211 208 207 205 206 210 212 213 212 207 198 181
266 261 259 260 265 269 269 268 270 273 276 275 273 271 271 269 266 261 251 237 230 230 230 228 229 228 221 215 212 212 212 217 222 207 201 200 203 207 209 210 212 209 205 194
265 262 262 263 266 268 268 268 268 269 269 267 269 271 268 260 252 248 243 236 236 238 237 233 231 226 222 216 211 212 207 198 206 211 205 205 208 210 212 213 213 215 213 198
265 268 269 269 270 269 268 268 267 267 267 268 270 266 256 247 247 248 243 237 236 240 241 238 232 227 223 217 215 216 211 205 204 209 208 210 213 213 213 215 215 219 216 189
272 270 267 266 265 262 262 265 268 267 266 263 258 254 251 250 247 244 238 234 234 239 243 239 227 225 220 215 219 214 215 213 207 207 208 204 212 213 213 215 217 216 214 206
276 275 274 272 266 263 264 269 271 269 267 261 252 246 247 250 246 240 237 241 244 251 250 247 227 228 221 207 211 214 215 215 212 209 209 210 214 216 216 217 219 220 218 215
284 282 279 274 270 269 268 268 266 266 267 257 247 245 248 251 244 240 240 249 255 255 245 236 231 229 222 206 207 216 213 214 216 215 212 214 217 218 221 220 220 222 223 221
292 290 286 281 276 275 273 271 269 268 265 260 257 251 243 244 245 247 248 255 258 256 246 234 233 232 224 213 217 217 214 214 217 218 219 219 219 219 222 224 224 225 225 226
291 289 286 284 279 278 278 276 274 268 265 269 267 258 245 240 240 241 251 259 252 260 254 241 242 214 216 222 221 219 216 214 216 218 221 223 224 223 223 224 226 227 226 225
294 293 291 290 285 280 280 285 281 272 269 270 266 265 259 244 243 249 254 251 252 244 245 239 221 216 225 228 222 222 223 221 217 217 220 223 226 226 224 224 225 226 227 227
293 289 286 286 284 283 283 283 283 281 279 279 277 271 264 253 245 244 243 237 240 238 242 223 213 224 232 233 228 226 225 225 222 217 215 220 223 226 225 223 224 225 226 226
299 291 284 280 283 287 282 274 273 275 277 280 282 277 269 261 247 237 234 227 227 236 244 234 224 227 239 241 238 235 232 225 218 219 221 219 219 222 227 227 225 226 226 226
298 290 286 285 286 284 282 280 277 275 274 274 277 278 274 269 262 251 240 233 228 232 237 237 235 237 240 240 239 236 235 234 228 223 220 219 220 220 221 224 225 225 224 221